Location: Dal�� Lhota
(48.7500°N, 14.0167°E)
Time: 23:18:08
(UTC+00:00)

SL-14 R/B - Pass Details

Date: 24 September 2020
Orbit: 519 x 554 km, 82.4° (Epoch: 25 October)

Event Time Altitude Azimuth Distance (km) Brightness Sun altitude
Rises 18:19:31 0° 357° (N) 2,686 7.1 -14.3°
Reaches altitude 10° 18:21:50 10° 8° (N) 1,796 6.0 -14.7°
Maximum altitude 18:25:26 33° 73° (ENE) 922 4.0 -15.2°
Enters shadow 18:26:20 29° 101° (E) 1,001 4.0 -15.4°
